Weather observations for the past three days for
Ely, Ely Municipal Airport
Imperial (Metric)
Date Time (cdt) Wind (mph) Vis. (mi.) Weather Sky Cond. Temperature (ºF) Relative Humidity Wind Chill (°F) Heat Index (°F) Pressure Precipitation (in)
Air Dwpt 6 hour altimeter (in) sea level (mb) 1 hr 3 hr 6 hr
Max. Min.
17 06:15 Calm 10.00 Fair CLR 48.2 48.2 100% 30.08 0.0
17 05:55 NW 3 10.00 Fair CLR 48.2 48.2 100% 30.07 0.0
17 05:35 W 5 10.00 Fair CLR 48.2 48.2 100% 47 30.07 0.0
17 05:15 NW 3 10.00 Fair CLR 50 48.2 94% 30.06 0.0
17 04:55 NW 3 10.00 Partly Cloudy SCT023 51.8 46.4 82% 30.05 0.0
17 04:35 NW 5 10.00 Mostly Cloudy SCT025 BKN030 51.8 46.4 82% 30.05 0.0
17 04:15 NW 5 10.00 Overcast OVC029 51.8 46.4 82% 30.04 0.0
17 03:55 NW 6 10.00 Overcast OVC027 51.8 46.4 82% 30.04 0.0
17 03:35 NW 3 10.00 Overcast OVC027 51.8 46.4 82% 30.03 0.0
17 03:15 NW 6 10.00 Overcast OVC025 51.8 46.4 82% 30.03 0.0
17 02:55 NW 3 10.00 Mostly Cloudy BKN025 51.8 46.4 82% 30.02 0.0
17 02:35 N 5 10.00 Partly Cloudy SCT025 51.8 44.6 77% 30.02 0.0
17 02:15 N 3 10.00 Fair CLR 51.8 44.6 77% 30.01 0.0
17 01:55 N 7 G 18 10.00 Fair CLR 53.6 46.4 77% 30.01 0.0
17 01:35 NW 7 10.00 Fair CLR 53.6 46.4 77% 30 0.0
17 01:15 NW 7 10.00 Fair CLR 53.6 46.4 77% 29.99 0.0
17 00:55 NW 7 10.00 Fair CLR 53.6 46.4 77% 29.99 0.0
17 00:35 NW 5 10.00 Fair CLR 53.6 46.4 77% 29.99 0.0
17 00:15 NW 6 10.00 Fair CLR 53.6 46.4 77% 29.99 0.0
16 23:55 NW 5 10.00 Fair CLR 53.6 46.4 77% 29.98 0.0
16 23:35 NW 5 10.00 Fair CLR 55.4 46.4 72% 29.97 0.0
16 23:15 NW 3 10.00 Partly Cloudy SCT090 55.4 48.2 77% 29.97 0.0
16 22:55 NW 5 10.00 Partly Cloudy SCT090 55.4 48.2 77% 29.97 0.0
16 22:35 NW 5 10.00 Mostly Cloudy BKN090 55.4 48.2 77% 29.96 0.0
16 22:15 NW 6 10.00 Partly Cloudy SCT090 55.4 48.2 77% 29.96 0.0
16 21:55 NW 5 10.00 Partly Cloudy SCT090 55.4 48.2 77% 29.96 0.0
16 21:35 NW 6 10.00 Mostly Cloudy BKN090 57.2 48.2 72% 29.95 0.0
16 21:15 W 5 10.00 Mostly Cloudy BKN090 57.2 48.2 72% 29.94 0.0
16 20:55 NW 5 10.00 Partly Cloudy SCT090 57.2 48.2 72% 29.94 0.0
16 20:35 NW 5 10.00 Partly Cloudy SCT090 59 48.2 68% 29.93 0.0
16 20:15 NW 3 10.00 Fair CLR 60.8 48.2 63% 29.93 0.0
16 19:55 W 6 10.00 Partly Cloudy SCT080 60.8 48.2 63% 29.93 0.0
16 19:35 NW 7 10.00 Partly Cloudy SCT080 62.6 50 64% 29.93 0.0
16 19:15 NW 10 10.00 Partly Cloudy SCT027 SCT031 62.6 51.8 68% 29.93 0.0
16 18:55 NW 8 10.00 Partly Cloudy SCT031 SCT110 64.4 51.8 64% 29.93 0.0
16 18:35 NW 8 10.00 Partly Cloudy SCT090 62.6 50 64% 29.92 0.0
16 18:15 NW 9 10.00 Partly Cloudy SCT090 64.4 50 60% 29.92 0.0
16 17:55 NW 8 10.00 Partly Cloudy SCT080 62.6 48.2 60% 29.92 0.0
16 17:35 NW 8 10.00 Light Rain SCT031 SCT040 BKN080 60.8 51.8 72% 29.92 0.0
16 17:15 NW 15 G 23 1.25 Mostly Cloudy with Haze BKN031 BKN042 BKN090 62.6 51.8 68% 29.92 0.0
16 16:55 NW 13 G 17 10.00 Partly Cloudy SCT090 64.4 50 60% 29.91 0.0
16 16:35 NW 7 10.00 Fair CLR 62.6 50 64% 29.91 0.0
16 16:15 NW 7 10.00 Partly Cloudy SCT075 62.6 50 64% 29.91 0.0
16 15:55 NW 13 G 23 10.00 Light Rain SCT021 SCT075 60.8 48.2 63% 29.91 0.0
16 15:35 NW 13 G 21 10.00 Mostly Cloudy BKN075 64.4 48.2 56% 29.9 0.0
16 15:15 W 10 G 18 10.00 Partly Cloudy SCT046 SCT085 66.2 48.2 52% 29.89 0.0
16 14:55 W 12 G 18 10.00 Partly Cloudy SCT046 SCT060 66.2 48.2 52% 29.88 0.0
16 14:35 NW 10 G 20 10.00 Mostly Cloudy SCT050 SCT060 BKN080 66.2 48.2 52% 29.88 0.0
16 14:15 NW 14 G 21 10.00 Mostly Cloudy BKN080 66.2 46.4 49% 29.88 0.0
16 13:55 NW 10 G 18 10.00 Mostly Cloudy SCT050 BKN070 66.2 44.6 46% 29.87 0.0
16 13:35 NW 9 G 17 10.00 Mostly Cloudy SCT050 BKN070 66.2 46.4 49% 29.88 0.0
16 13:15 NW 8 G 20 10.00 Mostly Cloudy SCT050 BKN060 66.2 46.4 49% 29.88 0.0
16 12:55 NW 9 G 22 10.00 Partly Cloudy SCT060 66.2 44.6 46% 29.88 0.0
16 12:35 W 15 G 18 10.00 Partly Cloudy SCT047 SCT060 66.2 46.4 49% 29.88 0.0
16 12:15 NW 9 10.00 Partly Cloudy SCT045 SCT060 SCT085 68 48.2 49% 29.87 0.0
16 11:55 NW 8 10.00 Mostly Cloudy BKN045 BKN060 64.4 46.4 52% 29.87 0.0
16 11:35 NW 15 G 21 10.00 Mostly Cloudy SCT043 BKN060 66.2 48.2 52% 29.87 0.0
16 11:15 W 7 10.00 Mostly Cloudy SCT043 BKN050 66.2 48.2 52% 29.87 0.0
16 10:55 NW 14 G 18 10.00 Partly Cloudy SCT040 SCT048 64.4 48.2 56% 29.87 0.0
16 10:35 NW 12 G 18 10.00 Partly Cloudy SCT040 66.2 48.2 52% 29.87 0.0
16 10:15 NW 9 G 17 10.00 Partly Cloudy SCT090 64.4 48.2 56% 29.87 0.0
16 09:55 NW 12 G 17 10.00 Fair CLR 64.4 48.2 56% 29.87 0.0
16 09:35 NW 15 10.00 Partly Cloudy SCT080 64.4 48.2 56% 29.85 0.0
16 09:15 NW 13 G 20 10.00 Partly Cloudy SCT090 64.4 46.4 52% 29.85 0.0
16 08:55 NW 10 10.00 Partly Cloudy SCT090 64.4 48.2 56% 29.85 0.0
16 08:35 NW 8 10.00 Fair CLR 62.6 51.8 68% 29.84 0.0
16 08:15 NW 8 10.00 Fair CLR 62.6 53.6 73% 29.84 0.0
16 07:55 NW 9 10.00 Fair CLR 60.8 55.4 83% 29.84 0.0
16 07:35 NW 6 10.00 Partly Cloudy SCT080 60.8 60.8 100% 29.84 0.0
16 07:15 W 3 10.00 Partly Cloudy SCT080 59 59 100% 29.84 0.0
16 06:55 W 5 10.00 Fair CLR 57.2 57.2 100% 29.83 0.0
16 06:35 W 3 10.00 Partly Cloudy SCT060 SCT070 57.2 57.2 100% 29.83 0.0
16 06:15 W 5 10.00 Partly Cloudy SCT040 57.2 57.2 100% 29.82 0.0
16 05:55 W 3 7.00 Partly Cloudy SCT040 57.2 57.2 100% 29.82 0.0
16 05:35 Calm 10.00 Mostly Cloudy BKN042 BKN050 BKN100 57.2 57.2 100% 29.82 0.0
16 05:15 Calm 10.00 Overcast SCT044 BKN060 OVC100 57.2 57.2 100% 29.82 0.0
16 04:55 Calm 7.00 Overcast SCT050 BKN060 OVC100 57.2 57.2 100% 29.82 0.0
16 04:35 Calm 10.00 Overcast SCT065 SCT070 OVC100 57.2 57.2 100% 29.81 0.0
16 04:15 Calm 10.00 Overcast SCT075 OVC100 57.2 57.2 100% 29.82 0.0
16 03:55 Calm 7.00 Overcast SCT075 BKN085 OVC100 57.2 57.2 100% 29.82 0.0
16 03:35 Calm 5.00 Fog/Mist SCT075 SCT090 OVC100 57.2 57.2 100% 29.81 0.0
16 03:15 Calm 7.00 Overcast OVC090 57.2 57.2 100% 29.82 0.0
16 02:55 Calm 7.00 Overcast OVC100 57.2 57.2 100% 29.82 0.0
16 02:35 Calm 10.00 Overcast OVC100 55.4 55.4 100% 29.83 0.0
16 02:15 Calm 5.00 Fog/Mist OVC100 55.4 55.4 100% 29.82 0.0
16 01:55 Calm 4.00 Fog/Mist SCT100 55.4 55.4 100% 29.82 0.0
16 01:35 W 3 10.00 Partly Cloudy SCT001 55.4 55.4 100% 29.83 0.0
16 01:15 Calm 0.75 Fog/Mist BKN001 BKN100 53.6 53.6 100% 29.81 0.0
16 00:55 Calm 1.75 Fog/Mist SCT080 BKN090 55.4 55.4 100% 29.82 0.0
16 00:35 Calm 4.00 Fog/Mist BKN090 55.4 55.4 100% 29.82 0.0
16 00:15 Calm 5.00 Fog/Mist OVC090 55.4 55.4 100% 29.81 0.0
15 23:55 Calm 10.00 Overcast OVC090 55.4 55.4 100% 29.8 0.0
15 23:35 Calm 10.00 Mostly Cloudy BKN090 55.4 55.4 100% 29.8 0.0
15 23:15 Calm 1.00 Fog/Mist BKN080 57.2 57.2 100% 29.8 0.0
15 22:55 Calm 10.00 Partly Cloudy SCT090 57.2 57.2 100% 29.8 0.0
15 22:35 Calm 10.00 Fair CLR 59 59 100% 29.79 0.0
15 22:15 Calm 10.00 Partly Cloudy SCT090 57.2 57.2 100% 29.79 0.0
15 21:55 Calm 10.00 Overcast OVC090 60.8 60.8 100% 29.79 0.0
15 21:35 Calm 10.00 Mostly Cloudy BKN090 60.8 60.8 100% 29.78 0.0
15 21:15 Calm 10.00 Partly Cloudy SCT090 62.6 57.2 83% 29.77 0.0
15 20:55 Calm 10.00 Partly Cloudy SCT060 64.4 57.2 78% 29.76 0.0
15 20:35 Calm 10.00 Mostly Cloudy SCT031 SCT042 BKN090 64.4 57.2 78% 29.77 0.0
15 20:15 N 3 10.00 Partly Cloudy SCT026 SCT036 SCT090 66.2 57.2 73% 29.77 0.0
15 19:55 Calm 10.00 Mostly Cloudy SCT023 SCT028 BKN090 66.2 57.2 73% 29.76 0.0
15 19:35 N 5 10.00 Partly Cloudy SCT060 SCT090 68 57.2 69% 29.76 0.0
15 19:15 N 3 10.00 Mostly Cloudy SCT025 SCT050 BKN060 68 57.2 69% 29.76 0.0
15 18:55 Calm 10.00 Mostly Cloudy SCT026 SCT048 BKN055 68 59 73% 29.76 0.0
15 18:35 N 3 10.00 Mostly Cloudy SCT025 SCT048 BKN070 69.8 60.8 73% 29.76 0.0
15 18:15 NE 6 10.00 Mostly Cloudy SCT025 BKN070 69.8 60.8 73% 29.76 0.0
15 17:55 NW 8 10.00 Mostly Cloudy SCT023 SCT032 BKN070 69.8 57.2 64% 29.76 0.0
15 17:35 N 5 10.00 Mostly Cloudy SCT020 BKN025 BKN034 69.8 60.8 73% 29.76 0.0
15 17:15 N 3 10.00 Partly Cloudy SCT030 69.8 60.8 73% 29.75 0.0
15 16:55 NE 5 10.00 Partly Cloudy SCT026 SCT035 SCT085 69.8 60.8 73% 29.75 0.0
15 16:35 Calm 10.00 Mostly Cloudy SCT026 BKN036 BKN042 69.8 60.8 73% 29.76 0.0
15 16:15 NW 5 10.00 Mostly Cloudy SCT022 BKN027 BKN040 69.8 60.8 73% 29.76 0.0
15 15:55 N 6 10.00 Partly Cloudy SCT022 SCT080 69.8 60.8 73% 29.75 0.0
15 15:35 N 3 10.00 Partly Cloudy SCT018 SCT048 69.8 60.8 73% 29.75 0.0
15 15:15 NW 6 10.00 Mostly Cloudy SCT017 BKN050 BKN070 68 64.4 88% 29.76 0.0
15 14:55 NW 9 10.00 Thunderstorm in Vicinity SCT023 SCT070 68 64.4 88% 29.76 0.0
15 14:35 NW 6 10.00 Mostly Cloudy SCT008 SCT016 BKN024 66.2 66.2 100% 29.76 0.0
15 14:15 N 5 10.00 Mostly Cloudy BKN008 BKN017 66.2 66.2 100% 29.76 0.0
15 13:55 NW 7 10.00 Mostly Cloudy SCT010 SCT013 BKN046 66.2 66.2 100% 29.76 0.0
15 13:35 N 3 10.00 Mostly Cloudy SCT010 BKN095 66.2 66.2 100% 29.76 0.0
15 13:15 N 5 10.00 Thunderstorm in Vicinity SCT005 BKN010 BKN019 64.4 64.4 100% 29.76 0.0
15 12:55 N 9 G 20 2.00 Thunderstorm Heavy Rain SCT004 BKN018 OVC045 66.2 62.6 88% 29.77 0.0 0.02
15 12:35 Calm 10.00 Overcast OVC045 69.8 60.8 73% 29.76 0.0
15 12:15 Calm 10.00 Mostly Cloudy BKN045 69.8 59 69% 29.75 0.0
15 11:55 Calm 10.00 Mostly Cloudy BKN045 BKN055 BKN100 69.8 57.2 64% 29.76 0.0
15 11:35 W 3 10.00 Partly Cloudy SCT045 SCT100 69.8 59 69% 29.78 0.0
15 11:15 Calm 10.00 Partly Cloudy SCT065 68 59 73% 29.78 0.0
15 10:55 W 3 10.00 Light Rain SCT065 SCT100 68 57.2 69% 29.79 0.0
15 10:35 SW 3 10.00 Partly Cloudy SCT060 SCT100 66.2 59 78% 29.8 0.0
15 10:15 SW 3 10.00 Light Rain CLR 66.2 57.2 73% 29.81 0.0
15 09:55 W 3 10.00 Light Rain SCT060 66.2 60.8 83% 29.81 0.0
15 09:35 Calm 10.00 Light Rain SCT060 66.2 59 78% 29.81 0.0
15 09:15 Calm 10.00 Partly Cloudy SCT090 66.2 55.4 68% 29.79 0.0
15 08:55 Calm 10.00 Fair CLR 66.2 57.2 73% 29.79 0.0
15 08:35 Calm 10.00 Partly Cloudy SCT080 64.4 60.8 88% 29.81 0.0
15 08:15 Calm 10.00 Light Rain SCT090 62.6 60.8 94% 29.81 0.0
15 07:55 Calm 10.00 Light Rain SCT075 SCT090 62.6 60.8 94% 29.82 0.0
15 07:35 Calm 10.00 Partly Cloudy SCT100 62.6 60.8 94% 29.83 0.0
15 07:15 Calm 10.00 Partly Cloudy SCT100 60.8 59 94% 29.83 0.0
15 06:55 Calm 10.00 Partly Cloudy SCT080 SCT100 60.8 59 94% 29.83 0.0
15 06:35 Calm 10.00 Partly Cloudy SCT080 SCT100 57.2 57.2 100% 29.83 0.0
15 06:15 Calm 10.00 Fair CLR 55.4 55.4 100% 29.83 0.0
15 05:55 Calm 10.00 Fair CLR 55.4 55.4 100% 29.83 0.0
15 05:35 Calm 10.00 Fair CLR 55.4 55.4 100% 29.82 0.0
15 05:15 Calm 10.00 Fair CLR 55.4 55.4 100% 29.82 0.0
15 04:55 Calm 10.00 Partly Cloudy SCT090 55.4 55.4 100% 29.83 0.0
15 04:35 Calm 10.00 Mostly Cloudy BKN090 55.4 55.4 100% 29.83 0.0
15 04:15 Calm 10.00 Partly Cloudy SCT090 55.4 55.4 100% 29.83 0.0
15 03:55 Calm 7.00 Fair CLR 55.4 55.4 100% 29.83 0.0
15 03:35 Calm 10.00 Partly Cloudy SCT080 55.4 55.4 100% 29.84 0.0
15 03:15 Calm 10.00 Mostly Cloudy BKN080 55.4 55.4 100% 29.84 0.0
15 02:55 Calm 10.00 Partly Cloudy SCT080 55.4 55.4 100% 29.85 0.0
15 02:35 Calm 10.00 Partly Cloudy SCT090 55.4 55.4 100% 29.85 0.0
15 02:15 Calm 10.00 Mostly Cloudy BKN090 55.4 55.4 100% 29.87 0.0
15 01:55 Calm 10.00 Mostly Cloudy BKN090 57.2 57.2 100% 29.87 0.0
15 01:35 Calm 10.00 Mostly Cloudy BKN090 57.2 57.2 100% 29.87 0.0
15 01:15 Calm 10.00 Mostly Cloudy BKN100 55.4 55.4 100% 29.87 0.0
15 00:55 Calm 10.00 Partly Cloudy SCT100 57.2 57.2 100% 29.87 0.0
15 00:35 Calm 10.00 Fair CLR 57.2 57.2 100% 29.88 0.0
15 00:15 Calm 10.00 Partly Cloudy SCT095 59 57.2 94% 29.89 0.0
14 23:55 Calm 10.00 Mostly Cloudy BKN095 59 57.2 94% 29.89 0.0
14 23:35 Calm 10.00 Mostly Cloudy BKN095 60.8 59 94% 29.88 0.0
14 23:15 Calm 10.00 Partly Cloudy SCT095 60.8 60.8 100% 29.89 0.0
14 22:55 Calm 10.00 Fair CLR 60.8 53.6 77% 29.88 0.0
14 22:35 Calm 10.00 Fair CLR 62.6 55.4 77% 29.88 0.0
14 22:15 Calm 10.00 Fair CLR 62.6 53.6 73% 29.89 0.0
14 21:55 Calm 10.00 Partly Cloudy SCT100 64.4 55.4 73% 29.89 0.0
14 21:35 Calm 10.00 Partly Cloudy SCT090 66.2 55.4 68% 29.89 0.0
14 21:15 Calm 10.00 Partly Cloudy SCT090 66.2 55.4 68% 29.88 0.0
14 20:55 Calm 10.00 Partly Cloudy SCT090 69.8 55.4 60% 29.88 0.0
14 20:35 NW 3 7.00 Partly Cloudy SCT090 71.6 53.6 53% 29.88 0.0
14 20:15 NW 3 10.00 Fair CLR 73.4 51.8 47% 29.88 0.0
14 19:55 NW 3 10.00 Fair CLR 75.2 51.8 44% 78 29.88 0.0
14 19:35 NW 5 10.00 Partly Cloudy SCT085 75.2 50 41% 78 29.89 0.0
14 19:15 NW 7 10.00 Partly Cloudy SCT085 77 50 39% 78 29.89 0.0
14 18:55 NW 7 10.00 Partly Cloudy SCT085 77 48.2 36% 78 29.89 0.0
14 18:35 NW 7 10.00 Partly Cloudy SCT085 78.8 46.4 32% 79 29.89 0.0
14 18:15 NW 8 10.00 Partly Cloudy SCT095 78.8 46.4 32% 79 29.89 0.0
14 17:55 NW 8 10.00 Partly Cloudy SCT095 78.8 46.4 32% 79 29.89 0.0
14 17:35 NW 9 G 16 10.00 Fair CLR 78.8 44.6 30% 79 29.89 0.0
14 17:15 NW 6 10.00 Partly Cloudy SCT095 78.8 44.6 30% 79 29.89 0.0
14 16:55 NW 8 G 18 10.00 Partly Cloudy SCT095 78.8 44.6 30% 79 29.89 0.0
14 16:35 NW 12 G 20 10.00 Fair CLR 78.8 44.6 30% 79 29.89 0.0
14 16:15 NW 12 G 16 10.00 Fair CLR 78.8 42.8 28% 78 29.89 0.0
14 15:55 NW 12 G 22 10.00 Fair CLR 78.8 44.6 30% 79 29.89 0.0
14 15:35 W 14 G 21 10.00 Fair CLR 78.8 51.8 39% 79 29.88 0.0
14 15:15 NW 12 G 20 10.00 Partly Cloudy SCT050 78.8 53.6 42% 79 29.88 0.0
14 14:55 NW 12 10.00 Partly Cloudy SCT050 78.8 57.2 48% 80 29.88 0.0
14 14:35 NW 6 10.00 Fair CLR 78.8 59 51% 80 29.88 0.0
14 14:15 NW 5 10.00 Partly Cloudy SCT045 SCT090 78.8 57.2 48% 80 29.88 0.0
14 13:55 NW 8 G 18 10.00 Fair CLR 77 57.2 51% 79 29.88 0.0
14 13:35 NW 9 G 16 10.00 Partly Cloudy SCT090 78.8 59 51% 80 29.88 0.0
14 13:15 NW 12 G 16 10.00 Partly Cloudy SCT032 SCT090 78.8 60.8 54% 80 29.89 0.0
14 12:55 NW 6 10.00 Mostly Cloudy SCT027 SCT032 BKN090 77 62.6 61% 79 29.89 0.0
14 12:35 NW 8 G 17 10.00 Partly Cloudy SCT026 SCT044 SCT090 77 64.4 65% 79 29.89 0.0
14 12:15 NW 9 10.00 Partly Cloudy SCT023 SCT080 75.2 66.2 74% 77 29.89 0.0
14 11:55 NW 10 G 16 10.00 Partly Cloudy SCT021 SCT080 SCT090 75.2 66.2 74% 77 29.89 0.0
14 11:35 NW 7 10.00 Partly Cloudy SCT021 SCT090 75.2 69.8 83% 75 29.89 0.0
14 11:15 NW 8 10.00 Partly Cloudy SCT021 SCT090 75.2 68 78% 76 29.89 0.0
14 10:55 NW 8 10.00 Mostly Cloudy SCT021 BKN090 75.2 69.8 83% 75 29.89 0.0
14 10:35 NW 6 10.00 Partly Cloudy SCT019 SCT090 75.2 68 78% 76 29.89 0.0
14 10:15 NW 8 10.00 Partly Cloudy SCT019 75.2 69.8 83% 75 29.89 0.0
14 09:55 NW 6 10.00 Fair CLR 75.2 66.2 74% 77 29.89 0.0
14 09:35 W 3 10.00 Partly Cloudy SCT055 73.4 69.8 89% 29.89 0.0
14 09:15 Calm 10.00 Partly Cloudy SCT055 73.4 69.8 89% 29.89 0.0
14 08:55 Calm 10.00 Partly Cloudy SCT055 71.6 69.8 94% 29.89 0.0
14 08:35 Calm 10.00 Partly Cloudy SCT095 71.6 68 88% 29.89 0.0
14 08:15 W 3 10.00 Fair CLR 69.8 66.2 88% 29.88 0.0
14 07:55 Calm 10.00 Partly Cloudy SCT070 69.8 68 94% 29.88 0.0
14 07:35 Calm 10.00 Fair CLR 68 68 100% 29.87 0.0
14 07:15 Calm 10.00 Partly Cloudy SCT090 66.2 66.2 100% 29.87 0.0
14 06:55 Calm 10.00 Partly Cloudy SCT090 64.4 64.4 100% 29.86 0.0
14 06:35 Calm 10.00 Partly Cloudy SCT090 62.6 62.6 100% 29.86 0.0
Date Time (cdt) Wind (mph) Vis. (mi.) Weather Sky Cond. Air Dwpt Max. Min. Relative Humidity Wind Chill (°F) Heat Index (°F) altimeter (in) sea level (mb) 1 hr 3 hr 6 hr
6 hour
Temperature (ºF) Pressure Precipitation (in)